QPF
0.00 0.00 0.00 0.00 0.00 0.00 0.00 0.00 0.00 0.00 0.00 0.00 0.00 0.00 0.00 0.00 0.00 0.00 0.00 0.00 0.00 0.00 0.00 0.00 0.00 0.00 0.00 0.00 0.00 0.00 0.00 0.00 0.00 0.00 0.00 0.00 0.00 0.00 0.00 0.00 0.00 0.00 0.00
0.00 0.00 0.00 0.00 0.00 0.00 0.00 0.00 0.00 0.00 0.00 0.00 0.00 0.00 0.00 0.00 0.00 0.00 0.00 0.00 0.00 0.00 0.00 0.00 0.00 0.00 0.00 0.00 0.00 0.00 0.00 0.00 0.00 0.00 0.00 0.00 0.00 0.00 0.00 0.00 0.00 0.00 0.00
0.00 0.00 0.00 0.00 0.00 0.00 0.00 0.00 0.00 0.00 0.00 0.00 0.00 0.00 0.00 0.00 0.00 0.00 0.00 0.00 0.00 0.00 0.00 0.00 0.00 0.00 0.00 0.00 0.00 0.00 0.00 0.00 0.00 0.00 0.00 0.00 0.00 0.00 0.00 0.00 0.00 0.00 0.00
0.00 0.00 0.00 0.00 0.00 0.00 0.00 0.00 0.00 0.00 0.00 0.00 0.00 0.00 0.00 0.00 0.00 0.00 0.00 0.00 0.00 0.00 0.00 0.00 0.00 0.00 0.00 0.00 0.00 0.00 0.00 0.00 0.00 0.00 0.00 0.00 0.00 0.00 0.00 0.00 0.00 0.00 0.00
0.00 0.00 0.00 0.00 0.00 0.00 0.00 0.00 0.00 0.00 0.00 0.00 0.00 0.00 0.00 0.00 0.00 0.00 0.00 0.00 0.00 0.00 0.00 0.00 0.00 0.00 0.00 0.00 0.00 0.00 0.00 0.00 0.00 0.00 0.00 0.00 0.00 0.00 0.00 0.00 0.00 0.00 0.00
0.00 0.00 0.00 0.00 0.00 0.00 0.00 0.00 0.00 0.00 0.00 0.00 0.00 0.00 0.00 0.00 0.00 0.00 0.00 0.00 0.00 0.00 0.00 0.00 0.00 0.00 0.00 0.00 0.00 0.00 0.00 0.00 0.00 0.00 0.00 0.00 0.00 0.00 0.00 0.00 0.00 0.00 0.01
0.00 0.00 0.00 0.00 0.00 0.00 0.00 0.00 0.00 0.00 0.00 0.00 0.00 0.00 0.00 0.00 0.00 0.00 0.00 0.00 0.00 0.00 0.00 0.00 0.00 0.00 0.00 0.00 0.00 0.00 0.00 0.00 0.00 0.00 0.00 0.00 0.00 0.00 0.00 0.00 0.00 0.01 0.01
0.00 0.00 0.00 0.00 0.00 0.00 0.00 0.00 0.00 0.00 0.00 0.00 0.00 0.00 0.00 0.00 0.00 0.00 0.00 0.00 0.00 0.00 0.00 0.00 0.00 0.00 0.00 0.00 0.00 0.00 0.00 0.00 0.00 0.00 0.00 0.00 0.00 0.00 0.00 0.01 0.01 0.01 0.01
0.00 0.00 0.00 0.00 0.00 0.00 0.00 0.00 0.00 0.00 0.00 0.00 0.00 0.00 0.00 0.00 0.00 0.00 0.00 0.00 0.00 0.00 0.00 0.00 0.00 0.00 0.00 0.00 0.00 0.00 0.00 0.00 0.00 0.00 0.00 0.00 0.00 0.00 0.01 0.01 0.01 0.01 0.02
0.00 0.00 0.00 0.00 0.00 0.00 0.00 0.00 0.00 0.00 0.00 0.00 0.00 0.00 0.00 0.00 0.00 0.00 0.00 0.00 0.00 0.00 0.00 0.00 0.00 0.00 0.00 0.00 0.00 0.00 0.00 0.00 0.00 0.00 0.00 0.00 0.00 0.00 0.01 0.01 0.01 0.02 0.02
0.00 0.00 0.00 0.00 0.00 0.00 0.00 0.00 0.00 0.00 0.00 0.00 0.00 0.00 0.00 0.00 0.00 0.00 0.00 0.00 0.00 0.00 0.00 0.00 0.00 0.00 0.00 0.00 0.00 0.00 0.00 0.00 0.00 0.00 0.00 0.00 0.00 0.00 0.01 0.01 0.01 0.02 0.02
0.00 0.00 0.00 0.00 0.00 0.00 0.00 0.00 0.00 0.00 0.00 0.00 0.00 0.00 0.00 0.00 0.00 0.00 0.00 0.00 0.00 0.00 0.00 0.00 0.00 0.00 0.00 0.00 0.00 0.00 0.00 0.00 0.00 0.00 0.00 0.00 0.00 0.00 0.00 0.01 0.01 0.02 0.02
0.00 0.00 0.00 0.00 0.00 0.00 0.00 0.00 0.00 0.00 0.00 0.00 0.00 0.00 0.00 0.00 0.00 0.00 0.00 0.00 0.00 0.00 0.00 0.00 0.00 0.00 0.00 0.00 0.00 0.00 0.00 0.00 0.00 0.00 0.00 0.00 0.00 0.00 0.00 0.00 0.01 0.01 0.02
0.00 0.00 0.00 0.00 0.00 0.00 0.00 0.00 0.00 0.00 0.00 0.00 0.00 0.00 0.00 0.00 0.00 0.00 0.00 0.00 0.00 0.00 0.00 0.00 0.00 0.00 0.00 0.00 0.00 0.00 0.00 0.00 0.00 0.00 0.00 0.00 0.00 0.00 0.00 0.00 0.00 0.00 0.01
0.00 0.00 0.00 0.00 0.00 0.00 0.00 0.00 0.00 0.00 0.00 0.00 0.00 0.00 0.00 0.00 0.00 0.00 0.00 0.00 0.00 0.00 0.00 0.00 0.00 0.00 0.00 0.00 0.00 0.00 0.00 0.00 0.00 0.00 0.00 0.00 0.00 0.00 0.00 0.00 0.00 0.00 0.00
0.00 0.00 0.00 0.00 0.00 0.00 0.00 0.00 0.00 0.00 0.00 0.00 0.00 0.00 0.00 0.00 0.00 0.00 0.00 0.00 0.00 0.00 0.00 0.00 0.00 0.00 0.00 0.00 0.00 0.00 0.00 0.00 0.00 0.00 0.00 0.00 0.00 0.00 0.00 0.00 0.00 0.01 0.01
0.00 0.00 0.00 0.00 0.00 0.00 0.00 0.00 0.00 0.00 0.00 0.00 0.00 0.00 0.00 0.00 0.00 0.00 0.00 0.00 0.00 0.00 0.00 0.00 0.00 0.00 0.00 0.00 0.00 0.00 0.00 0.00 0.00 0.00 0.00 0.00 0.01 0.01 0.01 0.01 0.01 0.01 0.01
0.00 0.00 0.00 0.00 0.00 0.00 0.00 0.00 0.00 0.00 0.00 0.00 0.00 0.00 0.00 0.00 0.00 0.00 0.00 0.00 0.00 0.00 0.00 0.00 0.00 0.00 0.00 0.00 0.00 0.00 0.00 0.00 0.00 0.00 0.00 0.00 0.00 0.01 0.01 0.01 0.01 0.01 0.01
0.00 0.00 0.00 0.00 0.00 0.00 0.00 0.00 0.00 0.00 0.00 0.00 0.00 0.00 0.00 0.00 0.00 0.00 0.00 0.00 0.00 0.00 0.00 0.01 0.00 0.00 0.00 0.00 0.00 0.00 0.00 0.00 0.00 0.00 0.00 0.00 0.00 0.01 0.01 0.01 0.01 0.01 0.02
0.00 0.00 0.00 0.00 0.00 0.00 0.00 0.00 0.00 0.00 0.00 0.00 0.00 0.00 0.00 0.00 0.00 0.00 0.00 0.00 0.00 0.01 0.01 0.01 0.00 0.00 0.00 0.00 0.01 0.01 0.00 0.00 0.00 0.00 0.00 0.00 0.00 0.00 0.01 0.01 0.02 0.02 0.02
0.00 0.00 0.00 0.00 0.00 0.00 0.00 0.00 0.00 0.00 0.00 0.00 0.00 0.00 0.00 0.01 0.01 0.01 0.01 0.01 0.01 0.02 0.02 0.02 0.01 0.01 0.01 0.01 0.01 0.00 0.00 0.00 0.00 0.00 0.00 0.00 0.00 0.00 0.00 0.00 0.01 0.02 0.02
0.00 0.00 0.00 0.00 0.00 0.00 0.00 0.00 0.01 0.01 0.01 0.01 0.01 0.01 0.00 0.01 0.01 0.02 0.03 0.03 0.04 0.04 0.05 0.04 0.04 0.02 0.01 0.00 0.01 0.01 0.01 0.01 0.01 0.00 0.00 0.00 0.00 0.00 0.00 0.00 0.00 0.00 0.01
0.00 0.00 0.00 0.00 0.00 0.00 0.00 0.01 0.01 0.01 0.01 0.01 0.01 0.01 0.01 0.01 0.01 0.01 0.01 0.02 0.03 0.04 0.05 0.06 0.06 0.03 0.02 0.01 0.02 0.03 0.02 0.01 0.00 0.00 0.00 0.00 0.00 0.00 0.00 0.00 0.00 0.00 0.00
0.00 0.00 0.00 0.00 0.00 0.00 0.00 0.01 0.01 0.01 0.01 0.01 0.00 0.01 0.01 0.01 0.01 0.01 0.01 0.01 0.01 0.01 0.02 0.04 0.05 0.03 0.02 0.02 0.03 0.03 0.03 0.03 0.02 0.01 0.01 0.01 0.00 0.00 0.00 0.00 0.00 0.00 0.00
0.00 0.00 0.00 0.00 0.00 0.00 0.00 0.01 0.01 0.01 0.01 0.01 0.00 0.01 0.01 0.01 0.01 0.02 0.02 0.02 0.01 0.01 0.01 0.02 0.03 0.03 0.04 0.05 0.05 0.06 0.07 0.08 0.05 0.01 0.01 0.01 0.00 0.00 0.00 0.00 0.00 0.00 0.00
0.00 0.00 0.00 0.00 0.00 0.00 0.00 0.01 0.01 0.01 0.01 0.01 0.01 0.01 0.01 0.01 0.02 0.03 0.03 0.03 0.03 0.01 0.01 0.01 0.01 0.02 0.03 0.05 0.08 0.09 0.08 0.07 0.04 0.02 0.01 0.01 0.01 0.01 0.01 0.00 0.00 0.00 0.00
MSLP
1022.91 1023.07 1023.17 1023.24 1023.28 1023.31 1023.36 1023.41 1023.46 1023.51 1023.54 1023.54 1023.52 1023.48 1023.44 1023.41 1023.40 1023.41 1023.44 1023.45 1023.43 1023.36 1023.22 1023.03 1022.81 1022.57 1022.38 1022.25 1022.20 1022.25 1022.37 1022.55 1022.74 1022.91 1023.04 1023.12 1023.16 1023.15 1023.13 1023.10 1023.09 1023.08 1023.08
1022.53 1022.66 1022.75 1022.80 1022.84 1022.87 1022.90 1022.93 1022.96 1022.98 1022.97 1022.93 1022.86 1022.78 1022.70 1022.64 1022.61 1022.61 1022.64 1022.66 1022.67 1022.62 1022.52 1022.35 1022.14 1021.92 1021.72 1021.57 1021.49 1021.51 1021.61 1021.77 1021.96 1022.16 1022.33 1022.47 1022.57 1022.64 1022.69 1022.72 1022.74 1022.77 1022.80
1022.06 1022.18 1022.26 1022.31 1022.36 1022.39 1022.43 1022.45 1022.46 1022.45 1022.39 1022.30 1022.17 1022.03 1021.89 1021.77 1021.70 1021.67 1021.69 1021.71 1021.74 1021.73 1021.66 1021.54 1021.37 1021.17 1020.97 1020.81 1020.71 1020.69 1020.74 1020.86 1021.04 1021.24 1021.44 1021.64 1021.81 1021.95 1022.07 1022.18 1022.27 1022.35 1022.41
1021.56 1021.66 1021.74 1021.81 1021.86 1021.91 1021.96 1021.98 1021.97 1021.92 1021.82 1021.67 1021.48 1021.26 1021.04 1020.85 1020.72 1020.63 1020.61 1020.63 1020.66 1020.68 1020.66 1020.60 1020.48 1020.32 1020.15 1019.98 1019.86 1019.79 1019.80 1019.87 1020.01 1020.20 1020.42 1020.65 1020.88 1021.10 1021.31 1021.49 1021.65 1021.79 1021.91
1021.05 1021.15 1021.23 1021.31 1021.38 1021.44 1021.48 1021.50 1021.48 1021.40 1021.26 1021.05 1020.79 1020.50 1020.20 1019.92 1019.70 1019.54 1019.46 1019.44 1019.46 1019.50 1019.53 1019.52 1019.46 1019.36 1019.22 1019.08 1018.95 1018.85 1018.81 1018.84 1018.93 1019.10 1019.31 1019.56 1019.84 1020.13 1020.41 1020.67 1020.91 1021.11 1021.27
1020.59 1020.67 1020.74 1020.82 1020.89 1020.95 1021.00 1021.01 1020.97 1020.87 1020.69 1020.44 1020.12 1019.76 1019.38 1019.01 1018.69 1018.45 1018.29 1018.21 1018.20 1018.23 1018.28 1018.31 1018.32 1018.28 1018.20 1018.09 1017.97 1017.87 1017.80 1017.79 1017.84 1017.97 1018.17 1018.43 1018.73 1019.06 1019.40 1019.73 1020.03 1020.29 1020.50
1020.17 1020.22 1020.28 1020.33 1020.39 1020.44 1020.47 1020.47 1020.41 1020.29 1020.10 1019.82 1019.46 1019.05 1018.60 1018.16 1017.75 1017.41 1017.15 1016.99 1016.92 1016.92 1016.96 1017.02 1017.07 1017.09 1017.07 1017.02 1016.94 1016.85 1016.78 1016.75 1016.77 1016.86 1017.04 1017.28 1017.58 1017.93 1018.31 1018.68 1019.03 1019.33 1019.60
1019.80 1019.80 1019.81 1019.83 1019.85 1019.87 1019.87 1019.85 1019.78 1019.65 1019.45 1019.16 1018.80 1018.36 1017.88 1017.38 1016.89 1016.46 1016.10 1015.84 1015.69 1015.62 1015.62 1015.68 1015.76 1015.83 1015.87 1015.88 1015.86 1015.81 1015.76 1015.72 1015.73 1015.79 1015.93 1016.14 1016.43 1016.77 1017.15 1017.54 1017.92 1018.26 1018.57
1019.44 1019.38 1019.33 1019.29 1019.26 1019.23 1019.19 1019.13 1019.05 1018.91 1018.72 1018.45 1018.10 1017.68 1017.20 1016.67 1016.13 1015.62 1015.17 1014.81 1014.55 1014.39 1014.33 1014.35 1014.43 1014.53 1014.62 1014.70 1014.74 1014.75 1014.73 1014.72 1014.72 1014.76 1014.86 1015.04 1015.28 1015.59 1015.95 1016.33 1016.72 1017.09 1017.43
1019.06 1018.94 1018.82 1018.71 1018.61 1018.51 1018.42 1018.33 1018.22 1018.09 1017.91 1017.68 1017.37 1016.99 1016.53 1016.01 1015.46 1014.90 1014.37 1013.91 1013.54 1013.28 1013.13 1013.09 1013.14 1013.24 1013.37 1013.49 1013.60 1013.67 1013.71 1013.73 1013.74 1013.77 1013.84 1013.96 1014.15 1014.41 1014.73 1015.09 1015.48 1015.86 1016.24
1018.66 1018.47 1018.28 1018.10 1017.92 1017.76 1017.60 1017.46 1017.33 1017.19 1017.03 1016.83 1016.58 1016.26 1015.85 1015.37 1014.83 1014.25 1013.67 1013.13 1012.67 1012.30 1012.06 1011.94 1011.93 1012.01 1012.14 1012.31 1012.46 1012.60 1012.69 1012.75 1012.78 1012.80 1012.84 1012.92 1013.05 1013.25 1013.52 1013.85 1014.22 1014.61 1015.02
1018.25 1017.99 1017.74 1017.49 1017.24 1017.00 1016.78 1016.58 1016.40 1016.25 1016.09 1015.93 1015.73 1015.47 1015.13 1014.71 1014.21 1013.64 1013.05 1012.46 1011.92 1011.46 1011.12 1010.91 1010.84 1010.87 1011.00 1011.17 1011.37 1011.54 1011.69 1011.78 1011.84 1011.86 1011.88 1011.92 1012.00 1012.13 1012.35 1012.63 1012.99 1013.39 1013.83
1017.83 1017.53 1017.22 1016.91 1016.60 1016.29 1016.00 1015.73 1015.50 1015.30 1015.14 1014.99 1014.82 1014.62 1014.35 1014.00 1013.56 1013.03 1012.45 1011.84 1011.26 1010.74 1010.32 1010.03 1009.88 1009.86 1009.95 1010.12 1010.33 1010.53 1010.71 1010.84 1010.92 1010.95 1010.95 1010.95 1010.99 1011.07 1011.24 1011.49 1011.82 1012.23 1012.69
1017.44 1017.10 1016.76 1016.40 1016.03 1015.65 1015.29 1014.94 1014.65 1014.40 1014.20 1014.03 1013.88 1013.71 1013.50 1013.21 1012.84 1012.37 1011.83 1011.24 1010.65 1010.10 1009.63 1009.28 1009.06 1008.98 1009.03 1009.17 1009.37 1009.58 1009.78 1009.93 1010.02 1010.05 1010.05 1010.03 1010.03 1010.08 1010.21 1010.43 1010.75 1011.16 1011.64
1017.08 1016.72 1016.35 1015.95 1015.53 1015.09 1014.66 1014.25 1013.87 1013.55 1013.29 1013.09 1012.93 1012.77 1012.59 1012.36 1012.05 1011.65 1011.17 1010.63 1010.06 1009.51 1009.02 1008.62 1008.35 1008.22 1008.22 1008.32 1008.49 1008.69 1008.89 1009.05 1009.15 1009.19 1009.18 1009.16 1009.14 1009.17 1009.27 1009.47 1009.78 1010.19 1010.68
1016.74 1016.36 1015.97 1015.54 1015.09 1014.60 1014.11 1013.62 1013.17 1012.78 1012.45 1012.19 1011.99 1011.82 1011.66 1011.46 1011.21 1010.87 1010.46 1009.98 1009.46 1008.93 1008.45 1008.04 1007.74 1007.56 1007.51 1007.56 1007.70 1007.87 1008.05 1008.20 1008.30 1008.35 1008.35 1008.32 1008.30 1008.32 1008.41 1008.60 1008.89 1009.30 1009.80
1016.39 1015.99 1015.58 1015.13 1014.65 1014.13 1013.59 1013.05 1012.54 1012.08 1011.68 1011.36 1011.10 1010.90 1010.72 1010.54 1010.32 1010.04 1009.69 1009.27 1008.81 1008.33 1007.88 1007.48 1007.16 1006.96 1006.87 1006.88 1006.96 1007.10 1007.25 1007.38 1007.48 1007.53 1007.53 1007.51 1007.49 1007.52 1007.61 1007.79 1008.08 1008.48 1008.97
1015.99 1015.57 1015.13 1014.66 1014.16 1013.62 1013.05 1012.48 1011.93 1011.41 1010.96 1010.58 1010.27 1010.02 1009.81 1009.62 1009.41 1009.16 1008.86 1008.51 1008.10 1007.68 1007.27 1006.89 1006.58 1006.37 1006.25 1006.22 1006.26 1006.36 1006.47 1006.58 1006.66 1006.71 1006.72 1006.71 1006.71 1006.74 1006.84 1007.02 1007.31 1007.70 1008.17
1015.51 1015.05 1014.58 1014.09 1013.58 1013.03 1012.46 1011.88 1011.31 1010.76 1010.27 1009.85 1009.49 1009.19 1008.94 1008.72 1008.50 1008.26 1007.99 1007.67 1007.33 1006.95 1006.59 1006.24 1005.96 1005.74 1005.60 1005.54 1005.55 1005.61 1005.69 1005.77 1005.84 1005.88 1005.90 1005.91 1005.92 1005.97 1006.08 1006.27 1006.55 1006.93 1007.39
1014.95 1014.44 1013.93 1013.42 1012.89 1012.35 1011.78 1011.21 1010.64 1010.09 1009.59 1009.13 1008.73 1008.39 1008.09 1007.83 1007.58 1007.33 1007.06 1006.77 1006.45 1006.13 1005.80 1005.49 1005.23 1005.03 1004.89 1004.82 1004.80 1004.83 1004.89 1004.95 1005.01 1005.05 1005.07 1005.09 1005.13 1005.20 1005.32 1005.52 1005.80 1006.17 1006.61
1014.32 1013.75 1013.21 1012.67 1012.12 1011.58 1011.02 1010.47 1009.92 1009.38 1008.87 1008.40 1007.97 1007.58 1007.24 1006.92 1006.63 1006.35 1006.06 1005.77 1005.48 1005.18 1004.89 1004.62 1004.39 1004.21 1004.08 1004.01 1003.99 1004.00 1004.04 1004.10 1004.15 1004.19 1004.23 1004.28 1004.34 1004.43 1004.57 1004.78 1005.06 1005.42 1005.85
1013.67 1013.05 1012.45 1011.87 1011.31 1010.76 1010.21 1009.67 1009.14 1008.61 1008.11 1007.62 1007.17 1006.74 1006.35 1005.98 1005.64 1005.31 1005.00 1004.69 1004.39 1004.11 1003.85 1003.62 1003.42 1003.27 1003.16 1003.11 1003.09 1003.11 1003.15 1003.21 1003.27 1003.33 1003.40 1003.47 1003.56 1003.68 1003.84 1004.07 1004.35 1004.71 1005.12
1013.05 1012.38 1011.73 1011.11 1010.52 1009.94 1009.39 1008.85 1008.32 1007.80 1007.29 1006.80 1006.32 1005.85 1005.41 1004.99 1004.59 1004.21 1003.86 1003.53 1003.22 1002.94 1002.70 1002.49 1002.33 1002.21 1002.14 1002.11 1002.12 1002.16 1002.22 1002.30 1002.38 1002.48 1002.57 1002.68 1002.81 1002.96 1003.16 1003.40 1003.69 1004.04 1004.44
1012.52 1011.80 1011.10 1010.43 1009.79 1009.18 1008.60 1008.04 1007.50 1006.97 1006.45 1005.93 1005.42 1004.92 1004.43 1003.95 1003.50 1003.07 1002.67 1002.31 1001.99 1001.71 1001.48 1001.30 1001.16 1001.08 1001.04 1001.05 1001.09 1001.16 1001.26 1001.38 1001.50 1001.64 1001.78 1001.93 1002.11 1002.30 1002.52 1002.79 1003.09 1003.43 1003.81
1012.09 1011.33 1010.58 1009.86 1009.17 1008.52 1007.89 1007.29 1006.71 1006.15 1005.60 1005.05 1004.51 1003.96 1003.43 1002.91 1002.40 1001.93 1001.49 1001.10 1000.76 1000.47 1000.25 1000.07 999.96 999.91 999.90 999.95 1000.03 1000.15 1000.29 1000.46 1000.64 1000.83 1001.03 1001.24 1001.46 1001.69 1001.95 1002.23 1002.54 1002.88 1003.25
1011.73 1010.94 1010.16 1009.40 1008.66 1007.95 1007.27 1006.62 1006.00 1005.39 1004.80 1004.21 1003.63 1003.05 1002.47 1001.91 1001.37 1000.85 1000.38 999.96 999.60 999.30 999.06 998.89 998.80 998.76 998.78 998.86 998.98 999.15 999.34 999.56 999.80 1000.05 1000.31 1000.58 1000.85 1001.13 1001.42 1001.72 1002.04 1002.37 1002.72
Thickness
5634 5632 5629 5626 5624 5622 5620 5619 5618 5617 5615 5614 5613 5612 5612 5612 5612 5612 5612 5611 5609 5609 5609 5609 5610 5611 5611 5610 5609 5608 5607 5605 5604 5603 5602 5601 5601 5600 5600 5600 5600 5601 5602
5630 5627 5624 5621 5619 5617 5616 5614 5613 5612 5611 5610 5609 5608 5607 5607 5608 5607 5607 5607 5606 5605 5604 5604 5604 5605 5605 5605 5605 5603 5602 5600 5598 5597 5596 5595 5594 5593 5592 5592 5592 5592 5592
5625 5622 5620 5617 5615 5612 5610 5608 5607 5605 5604 5604 5603 5603 5603 5603 5603 5603 5603 5602 5602 5601 5600 5599 5599 5599 5599 5599 5599 5598 5597 5595 5593 5591 5590 5588 5587 5585 5584 5583 5583 5582 5583
5621 5617 5615 5613 5610 5608 5605 5603 5601 5600 5599 5599 5599 5599 5599 5598 5598 5598 5598 5598 5597 5597 5596 5595 5594 5593 5593 5593 5592 5592 5591 5589 5587 5585 5583 5581 5580 5578 5577 5576 5574 5574 5573
5616 5612 5610 5608 5605 5602 5599 5597 5595 5595 5595 5595 5595 5594 5594 5594 5594 5594 5594 5594 5593 5592 5591 5591 5589 5588 5587 5586 5586 5585 5584 5583 5581 5579 5577 5575 5573 5571 5569 5568 5566 5565 5564
5611 5607 5605 5603 5600 5597 5594 5592 5590 5589 5588 5587 5587 5589 5590 5590 5590 5591 5591 5590 5589 5588 5586 5584 5583 5583 5581 5580 5579 5578 5577 5576 5575 5573 5571 5568 5566 5564 5562 5560 5558 5557 5556
5606 5603 5600 5598 5595 5592 5590 5588 5586 5584 5582 5579 5577 5582 5588 5590 5591 5590 5587 5585 5585 5583 5581 5579 5577 5576 5576 5574 5572 5571 5570 5569 5568 5566 5564 5562 5560 5557 5555 5552 5551 5549 5547
5601 5598 5595 5592 5590 5587 5585 5582 5579 5577 5575 5570 5568 5572 5584 5593 5596 5590 5584 5582 5580 5577 5575 5573 5570 5569 5567 5565 5566 5564 5562 5561 5560 5558 5557 5555 5553 5550 5548 5545 5543 5541 5540
5595 5592 5589 5586 5584 5581 5580 5577 5573 5569 5567 5565 5560 5558 5564 5579 5585 5587 5580 5575 5572 5569 5567 5564 5562 5560 5557 5555 5555 5554 5552 5551 5550 5550 5548 5547 5545 5543 5540 5538 5536 5534 5532
5589 5586 5583 5580 5578 5575 5573 5570 5566 5563 5559 5557 5554 5551 5548 5552 5553 5568 5574 5567 5562 5559 5557 5554 5551 5549 5546 5545 5545 5544 5541 5539 5539 5538 5538 5537 5536 5534 5532 5530 5528 5525 5524
5582 5579 5576 5573 5571 5568 5566 5563 5559 5555 5551 5548 5544 5542 5539 5534 5531 5533 5550 5555 5554 5552 5547 5543 5540 5537 5535 5533 5533 5532 5529 5527 5526 5526 5525 5525 5525 5524 5523 5521 5519 5517 5515
5576 5573 5569 5566 5563 5561 5558 5555 5551 5546 5542 5539 5534 5530 5527 5525 5525 5521 5527 5535 5537 5539 5535 5532 5528 5525 5522 5519 5519 5518 5515 5514 5513 5512 5512 5512 5512 5512 5512 5511 5509 5508 5506
5569 5566 5561 5558 5555 5552 5548 5544 5540 5536 5532 5527 5523 5519 5515 5512 5508 5505 5505 5512 5516 5521 5519 5519 5516 5511 5507 5504 5504 5501 5499 5499 5498 5498 5498 5498 5498 5498 5498 5498 5498 5497 5496
5559 5555 5551 5547 5544 5540 5536 5532 5528 5524 5519 5514 5509 5504 5499 5495 5490 5485 5482 5481 5487 5498 5502 5505 5499 5495 5490 5487 5486 5482 5483 5483 5483 5483 5483 5483 5484 5484 5484 5485 5485 5484 5484
5547 5543 5540 5536 5533 5528 5523 5518 5515 5510 5504 5499 5494 5487 5482 5478 5471 5466 5462 5457 5453 5463 5484 5490 5482 5478 5473 5468 5466 5463 5464 5467 5467 5467 5468 5469 5469 5469 5470 5470 5471 5471 5471
5534 5531 5527 5523 5519 5514 5508 5503 5499 5493 5487 5482 5475 5469 5464 5459 5453 5447 5442 5438 5433 5433 5448 5470 5460 5453 5450 5448 5445 5443 5445 5447 5449 5451 5453 5454 5455 5455 5456 5456 5457 5457 5457
5521 5517 5513 5509 5504 5498 5492 5487 5482 5475 5469 5464 5457 5451 5446 5438 5433 5429 5424 5420 5416 5412 5418 5444 5437 5431 5429 5429 5427 5426 5427 5429 5433 5435 5436 5438 5439 5440 5441 5442 5443 5443 5444
5508 5503 5498 5493 5488 5482 5475 5469 5463 5456 5450 5445 5439 5432 5428 5421 5416 5411 5407 5404 5401 5398 5398 5413 5421 5413 5411 5411 5410 5410 5411 5413 5416 5419 5420 5422 5424 5426 5427 5428 5429 5430 5431
5493 5488 5482 5477 5471 5464 5457 5450 5443 5438 5432 5427 5422 5416 5411 5404 5401 5397 5393 5390 5388 5386 5384 5389 5400 5396 5394 5394 5393 5395 5396 5398 5401 5404 5405 5407 5409 5411 5413 5415 5416 5417 5418
5478 5473 5466 5460 5453 5446 5439 5431 5424 5419 5415 5410 5405 5400 5395 5390 5387 5384 5381 5379 5375 5373 5373 5374 5380 5382 5381 5380 5378 5381 5383 5384 5387 5389 5392 5394 5396 5398 5401 5403 5404 5404 5405
5462 5456 5450 5444 5437 5430 5422 5414 5408 5404 5400 5397 5393 5388 5385 5381 5377 5374 5371 5368 5365 5363 5363 5364 5368 5369 5371 5369 5369 5370 5371 5374 5377 5377 5379 5382 5384 5387 5389 5390 5391 5392 5392
5448 5441 5435 5428 5422 5415 5408 5400 5395 5392 5389 5387 5384 5381 5378 5375 5372 5369 5366 5364 5361 5357 5356 5356 5359 5361 5364 5362 5361 5360 5361 5362 5367 5369 5367 5372 5372 5375 5377 5378 5380 5380 5380
5434 5427 5421 5414 5409 5403 5395 5389 5383 5380 5380 5378 5376 5374 5371 5368 5365 5362 5360 5358 5357 5355 5354 5352 5353 5355 5355 5356 5353 5353 5352 5353 5357 5358 5357 5361 5362 5364 5365 5366 5366 5367 5367
5420 5414 5408 5401 5396 5391 5383 5378 5374 5372 5371 5369 5367 5365 5362 5361 5357 5355 5353 5351 5350 5349 5348 5347 5347 5348 5348 5347 5346 5345 5345 5345 5346 5346 5344 5347 5351 5352 5352 5353 5354 5354 5354
5406 5400 5394 5388 5384 5380 5373 5368 5364 5363 5362 5362 5360 5357 5355 5353 5352 5350 5348 5347 5347 5346 5345 5344 5344 5343 5343 5342 5340 5337 5336 5335 5339 5339 5336 5335 5338 5339 5340 5342 5342 5341 5341
5392 5387 5382 5377 5372 5370 5365 5360 5356 5355 5354 5354 5353 5351 5349 5348 5347 5346 5344 5343 5343 5343 5341 5340 5339 5339 5338 5337 5336 5333 5331 5329 5331 5333 5332 5326 5326 5324 5326 5331 5330 5330 5329